STARLINK-31410

operational
NORAD ID: 59179 Int'l Des: 2024-045 Owner: SPXS Country: US Constellation: starlink
LEOCIRCULAR

STARLINK-31410について

説明を読み込み中...

リアルタイム位置

3D地球を読み込み中...

次回通過

高度履歴

Altitude vs Time

uPlot chart will show altitude changes over time

軌道要素

1 59179U 24045B 25251.47215686 .00021429 00000-0 76397-3 0 9993
2 59179 43.0036 41.6057 0002424 292.4053 67.6542 15.28511315 85295
Epoch: Sep 8, 2025 • Age: 14 hours

現在のステータス

高度 490.3 km
速度 7.62 km/s
衛星直下点 -39.33°S, 28.15°W
打ち上げ日 Mar 11, 2024
運用期間 1.4 years
タイプ internet

技術仕様

分類 Payload
質量 730.00 kg
乾燥質量 700.00 kg
総質量 730.00 kg
長さ 0.30 m
直径 4.10 m
スパン 29.00 m
形状 Box + pan
製造者 SPXS
バスタイプ Starlink V2M
フェーズステータス In Orbit
所有者/国 SPXS/US

大規模コンステレーション

Loading constellations...